小惑星2011 OR17

2011 OR17

English version
Home page
Updated on April 30, 2013

---------------------------------------------------------------------

・ プロフィール

発見日 2011年7月29日
発見光度 17.9等
発見者 Siding Spring Survey

・ 写真集

・ 軌道要素

The following orbital elements are taken from MPO208315

Epoch 2011 Aug. 27.0 TT = JDT 2455800.5                 MPC
M 359.99974              (2000.0)            P               Q
n   0.00017227     Peri.   14.09197     -0.05771035     -0.34362661
a 319.8897464      Node   271.58685     -0.98249549     -0.14702782
e   0.9903069      Incl.  110.33265     -0.17712179     +0.92752551
P5721              H   13.1           G   0.15
From 68 observations at 2 oppositions, 2010-2011, mean residual 0".39.

・ 光度変化

        H = 13.0  G = 0.15

---------------------------------------------------------------------

軌道要素はMPCのEphemerides and Orbital Elementsに掲載されたものです。
光度グラフはComet for Windowsで作成したものです。

---------------------------------------------------------------------

Copyright(C) Seiichi Yoshida (comet@aerith.net). All rights reserved.